Regional Weather Roundup
Issued by NWS

Home | Current Version | Previous Version | Graphics & Text | Print | Product List | Glossary On
Versions: 1 2 3 4 5 6 7 8 9 10 11 12 13 14 15 16 17 18 19 20 21 22 23 24 25 26 27 28 29 30 31 32 33 34 35 36 37 38 39 40 41 42 43 44 45 46 47 48 49 50
000
ASUS43 KIND 301259
RWRIN

WEATHER ROUNDUP FOR INDIANA
NATIONAL WEATHER SERVICE INDIANAPOLIS IN
900 AM EDT SUN AUG 30 2015

NOTE: "FAIR" INDICATES FEW OR NO CLOUDS BELOW 12,000 FEET WITH NO
SIGNIFICANT WEATHER AND/OR OBSTRUCTIONS TO VISIBILITY.

* - STATION DOES NOT REPORT WEATHER SUCH AS PRECIPITATION OR FOG.

+ - STATION NOT QUALITY CONTROLLED BY THE NATIONAL WEATHER SERVICE.
    USE DATA WITH CAUTION...ESPECIALLY DEWPOINT AND RELATIVE
    HUMIDITY OBSERVATIONS.

INZ001>003-010>013-019-020-301400-
NORTHWEST INDIANA

CITY           SKY/WX    TMP DP  RH WIND       PRES   REMARKS
GARY /AIRPORT/ FOG       66  64  94 CALM      30.08R VSB 1
KNOX *+        CLOUDY    68  68 100 CALM      30.06S VSB 1/4
MONTICELLO +   CLOUDY    69  69 100 S3        30.06R FOG
RENSSELAER +   CLOUDY    66  66 100 CALM      30.07R FOG

$$

LMZ046-743>745-301400-
SOUTHERN LAKE MICHIGAN

STATION/POSITION TIME  TEMP    WIND        PRES    WAVE
                       AIR SEA DIR/SP/G            HT
                 (UTC) (F)     (DEG/KT/KT) (MB)    (FT)
BURNS HARBOR     1200   67     340/  6/  8 1018.3R
MICHIGAN CITY    1200   68     320/  9/  9   N/A
5NW MICH CITY    1200   68 70  340/  6/  8   N/A     1

$$

INZ004-005-014>016-021>024-301400-
NORTH CENTRAL INDIANA

CITY           SKY/WX    TMP DP  RH WIND       PRES   REMARKS
ELKHART        FOG       66  66 100 CALM      30.07R VSB 1/4
GOSHEN         CLOUDY    68  66  93 S3        30.07S FOG
PERU/GRISSOM   PTSUNNY   70  68  92 S6        30.07R
SOUTH BEND     FOG       67  67 100 W3        30.08R VSB 3/4
WARSAW +       CLOUDY    66  64  94 CALM      30.08R FOG

$$

INZ006>009-017-018-025>027-301400-
NORTHEAST INDIANA

CITY           SKY/WX    TMP DP  RH WIND       PRES   REMARKS
ANGOLA *+      CLOUDY    68  61  77 CALM      30.08S
FORT WAYNE     MOSUNNY   71  68  90 SW7       30.09R FOG

$$

INZ028-029-035-036-043>045-051>053-301400-
WEST CENTRAL INDIANA

CITY           SKY/WX    TMP DP  RH WIND       PRES   REMARKS
CRAWFORDSVL +  PTSUNNY   68  66  93 S3        30.08S
GREENCASTLE +  MOSUNNY   68  64  88 CALM      30.09S FOG
LAFAYETTE      PTSUNNY   66  65  96 SE3       30.07R FOG
TERRE HAUTE    MOSUNNY   69  67  93 CALM      30.08R FOG

$$

INZ030>032-037>040-046>048-054>057-064-065-301400-
CENTRAL INDIANA

CITY           SKY/WX    TMP DP  RH WIND       PRES   REMARKS
FRANKFORT +    SUNNY    N/A N/A N/A CALM      30.10R HAZE
GREENWOOD *+   MOSUNNY   70  66  88 CALM      30.10R
INDIANAPOLIS   PTSUNNY   71  68  90 SW6       30.07R FOG
-EAGLE CREEK   SUNNY     71  69  93 CALM      30.08R FOG
KOKOMO *+      MOSUNNY   72  59  64 SW6       30.09R
MT COMFORT *+  MOSUNNY   72 N/A N/A S5        30.09S
SHELBYVILLE    PTSUNNY   73  68  84 S8        30.08S
ZIONSVILLE +   SUNNY     70  67  90 CALM      30.09S FOG

$$

INZ033-034-041-042-049-050-058-059-301400-
EAST CENTRAL INDIANA

CITY           SKY/WX    TMP DP  RH WIND       PRES   REMARKS
MUNCIE         MOSUNNY   70  68  93 S6        30.09R

$$

INZ060-061-067>069-081>083-085>088-301400-
SOUTHWEST INDIANA

CITY           SKY/WX    TMP DP  RH WIND       PRES   REMARKS
EVANSVILLE     CLOUDY    74  70  87 S9        30.09R
HUNTINGBURG *+ CLOUDY    72  66  83 S9        30.10R

$$

INZ062-063-066-070>080-084-089>092-301400-
SOUTH CENTRAL AND SOUTHEAST INDIANA

CITY           SKY/WX    TMP DP  RH WIND       PRES   REMARKS
BLOOMINGTON    PTSUNNY   71  68  90 S5        30.09R
MADISON *+     SUNNY     70  68  94 S8        30.13R
SEYMOUR +      MOSUNNY   72  68  88 S6        30.10R

$$



USA.gov is the U.S. government's official web portal to all federal, state and local government web resources and services.